Regional Weather Roundup
Issued by NWS

Home | Current Version | Previous Version | Text Only | Print | Product List | Glossary On
Versions: 1 2 3 4 5 6 7 8 9 10 11 12 13 14 15 16 17 18 19 20 21 22 23 24 25 26 27 28 29 30 31 32 33 34 35 36 37 38 39 40 41 42 43 44 45 46 47 48 49
000
ASUS46 KPQR 281210
RWROR

OREGON REGIONAL WEATHER ROUNDUP
NATIONAL WEATHER SERVICE PORTLAND OR
500 AM PDT TUE APR 28 2015

NOTE: "FAIR" INDICATES FEW OR NO CLOUDS BELOW 12,000 FEET WITH
NO SIGNIFICANT WEATHER AND/OR OBSTRUCTIONS TO VISIBILITY.

ORZ001>013-281300-
NORTHWEST OREGON


CITY           SKY/WX    TMP DP  RH WIND       PRES   REMARKS
ASTORIA        MOCLDY    55  50  83 SW13      30.04F
6HR MIN TEMP:  53; 6HR MAX TEMP:  56;

NEWPORT        MOCLDY    54  50  87 S7        30.12S
PORTLAND       CLOUDY    60  52  74 S9        30.06R
6HR MIN TEMP:  59; 6HR MAX TEMP:  68;

VANCOUVER WA   CLOUDY    59  52  77 NW7       30.05R
6HR MIN TEMP:  59; 6HR MAX TEMP:  69;

SCAPPOOSE      CLOUDY    55  51  86 CALM      30.04R
6HR MIN TEMP:  52; 6HR MAX TEMP:  60;

HILLSBORO      CLOUDY    59  51  75 CALM      30.04R
6HR MIN TEMP:  54; 6HR MAX TEMP:  60;

AURORA         CLOUDY    56  50  80 SW3       30.07R
6HR MIN TEMP:  54; 6HR MAX TEMP:  65;

MCMINNVILLE    PTCLDY    54  50  86 S8        30.07R
6HR MIN TEMP:  54; 6HR MAX TEMP:  63;

SALEM          PTCLDY    52  48  86 S6        30.07R
6HR MIN TEMP:  51; 6HR MAX TEMP:  66;

CORVALLIS      CLOUDY    54  48  82 CALM      30.10R
EUGENE         CLOUDY    54  50  86 S3        30.10R
6HR MIN TEMP:  53; 6HR MAX TEMP:  61;

$$

ORZ021-028-281300-
SOUTHWEST OREGON


CITY           SKY/WX    TMP DP  RH WIND       PRES   REMARKS
NORTH BEND     PTCLDY    50  50 100 CALM      30.12R
6HR MIN TEMP:  50; 6HR MAX TEMP:  55;

BROOKINGS      PTCLDY    49  49 100 CALM      30.10S
ROSEBURG       CLEAR     52  47  83 SE3       30.10S
6HR MIN TEMP:  52; 6HR MAX TEMP:  68;

SEXTON SUMMIT  CLEAR     45  43  93 N10       30.08F
6HR MIN TEMP:  45; 6HR MAX TEMP:  61;

MEDFORD        CLEAR     54  46  74 CALM      30.04R
6HR MIN TEMP:  50; 6HR MAX TEMP:  68;

$$

ORZ014>016-041-281300-
COLUMBIA GORGE


CITY           SKY/WX    TMP DP  RH WIND       PRES   REMARKS
TROUTDALE      CLOUDY    61  48  62 S8G16     30.04R
6HR MIN TEMP:  61; 6HR MAX TEMP:  70;

THE DALLES     CLEAR     45  40  82 CALM      30.02S
6HR MIN TEMP:  44; 6HR MAX TEMP:  63;

$$

ORZ029>031-041-044-049-050-061>064-502-503-505>511-281300-
EASTERN OREGON


CITY           SKY/WX    TMP DP  RH WIND       PRES   REMARKS
REDMOND        CLEAR     38  28  67 NW3       30.04F
6HR MIN TEMP:  35; 6HR MAX TEMP:  58;

BEND           CLEAR     43  36  75 S6        30.06F
PRINEVILLE     CLEAR     52  25  35 SE3       30.06F
KLAMATH FALLS  CLEAR     40  34  79 W3        30.09S
6HR MIN TEMP:  39; 6HR MAX TEMP:  52;

LAKEVIEW       PTCLDY    30  23  74 N6        30.15S WCI  24
HERMISTON      PTCLDY    40  36  86 CALM      30.00S
6HR MIN TEMP:  40; 6HR MAX TEMP:  56;

PENDLETON      PTCLDY    51  33  50 SE6       30.00F
6HR MIN TEMP:  48; 6HR MAX TEMP:  54;

JOHN DAY       PTCLDY    46  32  59 E8        30.12F
MEACHAM        PTCLDY    48  30  49 CALM      30.10F
6HR MIN TEMP:  39; 6HR MAX TEMP:  50;

LA GRANDE      CLEAR     39  25  56 CALM      30.12S
6HR MIN TEMP:  37; 6HR MAX TEMP:  48;

BAKER CITY     CLEAR     34  28  79 SE3       30.16F
6HR MIN TEMP:  29; 6HR MAX TEMP:  46;

BURNS          PTCLDY    29  22  75 SW6       30.16F WCI  23
6HR MIN TEMP:  28; 6HR MAX TEMP:  42;

ROME             N/A     35  28  75 CALM      30.15F
6HR MIN TEMP:  34; 6HR MAX TEMP:  49;

ONTARIO        CLEAR     37  29  72 W8        30.19S WCI  31
6HR MIN TEMP:  36; 6HR MAX TEMP:  49;

$$


USA.gov is the U.S. government's official web portal to all federal, state and local government web resources and services.